Lid_Strength_Index
3 3 3 3 3 3 3 4 5 6 6 4 4 3 2 2 2 1 0 1 1 1 -0 -0 -0 -0 -1 -1 -1 -1 -1 -1 -1 -1 -1 -1 -1 -1
3 3 3 3 4 4 4 4 4 5 6 4 3 3 2 2 2 2 1 2 1 0 0 1 1 0 0 0 0 1 1 0 -0 -1 -1 -1 -1 -1
4 3 4 3 4 3 3 2 3 3 5 4 3 3 4 4 4 3 3 3 3 1 1 1 2 2 2 3 3 2 2 1 0 -0 -0 -1 -1 -1
5 5 4 3 3 3 3 4 4 3 4 6 5 5 5 4 4 4 3 3 3 3 2 3 3 3 3 3 4 4 4 3 3 3 3 3 2 1
6 6 6 6 6 6 6 6 5 5 5 5 6 5 5 5 5 5 5 5 4 5 4 4 4 4 4 4 4 4 4 4 4 4 5 5 4 3
5 4 5 5 6 6 6 6 5 6 6 6 6 6 5 4 4 6 7 7 7 6 6 5 5 5 5 5 5 5 5 5 5 5 5 5 5 5
5 5 5 6 6 5 5 6 6 6 5 6 6 5 6 7 8 8 7 8 8 9 9 8 7 6 6 6 6 6 6 6 6 6 5 5 6 5
7 6 6 7 6 5 7 7 7 8 8 7 7 8 9 10 10 9 9 10 10 10 11 10 7 8 7 7 6 7 7 7 7 7 6 6 6 6
8 8 8 8 7 7 7 8 8 8 8 9 9 11 11 12 13 13 12 12 11 11 12 11 10 10 8 8 7 7 7 7 8 8 8 8 7 8
9 9 9 9 8 8 8 9 10 10 10 10 11 11 12 12 13 13 13 14 14 13 12 14 12 14 13 12 8 8 9 9 9 8 8 7 7 7
9 9 11 12 10 9 10 11 11 12 10 10 10 10 11 11 12 15 17 18 18 15 13 16 16 16 15 12 11 9 9 9 9 8 7 7 6 7
10 10 10 12 11 11 12 12 12 12 12 13 14 13 13 13 12 15 16 20 18 19 14 17 18 16 18 16 14 13 13 10 9 8 7 7 7 9
11 12 13 11 11 11 11 13 13 12 12 14 16 17 16 16 16 16 15 17 17 17 14 15 16 16 18 18 16 15 15 14 12 11 9 8 8 8
12 12 13 11 12 12 13 12 12 12 15 16 17 18 18 18 17 16 15 16 13 13 13 16 21 20 22 21 18 16 16 14 13 13 12 10 9 9
12 12 11 11 12 13 13 13 12 15 16 17 17 18 19 19 18 18 17 16 17 13 13 17 19 22 21 20 20 19 16 15 14 14 14 13 13 12
11 13 12 12 13 14 14 15 15 16 16 17 17 17 18 20 20 20 23 23 22 19 15 17 21 21 20 19 20 18 18 19 15 15 14 14 13 12
13 15 16 17 17 17 17 17 17 16 17 17 18 18 17 18 19 21 22 23 23 23 20 19 18 18 19 21 20 19 19 19 18 16 17 15 14 13
14 16 17 17 18 17 17 17 17 16 17 17 17 18 19 21 21 21 22 24 24 22 22 22 20 21 20 19 16 16 15 21 16 17 17 15 14 13
14 15 16 17 17 17 17 17 17 17 17 17 18 19 20 21 18 21 22 22 21 22 23 22 18 18 22 22 18 13 21 20 20 17 13 13 13 13
15 15 16 16 16 16 16 16 16 16 17 17 19 19 20 21 22 21 20 23 22 23 21 23 22 18 20 20 18 19 12 19 20 16 15 14 13 10
15 15 15 15 15 15 15 15 15 16 16 18 18 19 19 20 20 20 20 16 17 18 18 17 16 13 15 19 17 16 16 11 12 15 14 14 15 16
14 14 14 14 14 14 14 15 15 15 16 17 17 18 18 19 19 19 19 20 19 18 16 15 14 15 23 20 21 20 18 16 13 11 10 11 13 14
13 13 13 13 13 13 13 14 15 15 15 16 17 17 17 18 18 17 17 16 17 16 16 16 16 21 21 22 20 23 20 19 16 15 14 9 9 9